KC5EZZ-2 Weather Reports


time (UTC)temp
C
wind
direction
speed
KPH
gust
KPH
rain 1hr
cm
rain 24hr
cm
rain mn
cm
humidity
%
barometer
mb
20260502202634 22 89 6.4 9.7 0.00 0.18 0.00
20260502202131 23 58 0.0 8.0 0.00 0.18 0.00
20260502201632 22 301 6.4 0.0 0.00 0.18 0.00
20260502201132 23 343 0.0 3.2 0.00 0.18 0.00
20260502200630 21 328 4.8 8.0 0.00 0.18 0.00
20260502200130 20 309 8.0 9.7 0.00 0.18 0.00
20260502195630 21 6 4.8 11.3 0.00 0.18 0.00
20260502195128 21 34 8.0 6.4 0.00 0.18 0.00
20260502194628 22 13 11.3 12.9 0.00 0.18 0.00
20260502194129 23 236 6.4 8.0 0.00 0.18 0.00
20260502193626 22 20 6.4 3.2 0.00 0.18 0.00
20260502193127 21 170 3.2 0.0 0.00 0.18 0.00
20260502192627 22 24 9.7 9.7 0.00 0.18 0.00
20260502192125 22 15 6.4 14.5 0.00 0.18 0.00
20260502191725 25 342 0.0 12.9 0.00 0.18 0.00
20260502191625 25 342 0.0 12.9 0.00 0.18 0.00
20260502191126 24 255 1.6 4.8 0.00 0.18 0.00
20260502190623 23 281 4.8 3.2 0.00 0.18 0.00
20260502190124 22 280 8.0 1.6 0.00 0.18 0.00
20260502185624 21 51 11.3 3.2 0.00 0.18 0.00
20260502185122 23 197 1.6 0.0 0.00 0.18 0.00
20260502184622 22 266 3.2 0.0 0.00 0.18 0.00
20260502184122 22 359 6.4 4.8 0.00 0.18 0.00
20260502183620 20 304 8.0 6.4 0.00 0.18 0.00
20260502183121 20 338 11.3 11.3 0.00 0.18 0.00
20260502182621 20 329 12.9 11.3 0.00 0.18 0.00
20260502182119 21 359 6.4 4.8 0.00 0.18 0.00
20260502181619 20 333 4.8 1.6 0.00 0.18 0.00
20260502181119 20 316 6.4 1.6 0.00 0.18 0.00
20260502180617 20 354 6.4 6.4 0.00 0.18 0.00
20260502180117 19 28 12.9 11.3 0.00 0.18 0.00
20260502170111 21 287 1.6 0.0 0.00 0.18 0.00
20260502164110 19 32 4.8 8.0 0.00 0.18 0.00
20260502163608 19 323 12.9 11.3 0.00 0.18 0.00
20260502163108 19 18 4.8 3.2 0.00 0.18 0.00
20260502162609 19 301 9.7 4.8 0.00 0.18 0.00
20260502162106 18 322 1.6 3.2 0.00 0.18 0.00
20260502161607 18 353 11.3 9.7 0.00 0.18 0.00
20260502161108 19 315 8.0 11.3 0.00 0.18 0.00
20260502160605 20 293 0.0 4.8 0.00 0.18 0.00
20260502160106 19 311 0.0 0.0 0.00 0.18 0.00
20260502152101 18 248 4.8 8.0 0.00 0.18 0.00
20260502151602 18 24 4.8 4.8 0.00 0.18 0.00
20260502151102 17 14 3.2 1.6 0.00 0.18 0.00
20260502150734 17 302 6.4 8.0 0.00 0.18 0.00
20260502150600 17 302 6.4 8.0 0.00 0.18 0.00
20260502130549 18 252 4.8 3.2 0.00 0.05 0.18
20260502123546 13 264 0.0 0.0 0.00 0.05 0.18
20260502123047 12 264 0.0 0.0 0.00 0.05 0.18
20260502122547 12 264 0.0 0.0 0.00 0.05 0.18
20260502122045 11 264 0.0 0.0 0.00 0.05 0.18
20260502121546 10 264 0.0 0.0 0.00 0.05 0.18
20260502121046 9 264 0.0 0.0 0.00 0.05 0.18
20260502120544 8 264 0.0 0.0 0.00 0.05 0.18
20260502115545 8 264 0.0 0.0 0.00 0.05 0.18
20260502115043 9 264 0.0 0.0 0.00 0.05 0.18
20260502114543 9 264 0.0 0.0 0.00 0.05 0.18
20260502114044 9 264 0.0 0.0 0.00 0.05 0.18
20260502113042 9 264 0.0 0.0 0.00 0.05 0.18
20260502112542 9 264 0.0 0.0 0.00 0.05 0.18
20260502112040 9 264 0.0 0.0 0.00 0.05 0.18
20260502111540 9 264 0.0 0.0 0.00 0.05 0.18
20260502111041 10 264 0.0 0.0 0.00 0.05 0.18
20260502110538 10 264 0.0 0.0 0.00 0.05 0.18
20260502110039 10 264 0.0 0.0 0.00 0.05 0.18
20260502105540 10 264 0.0 0.0 0.00 0.05 0.18
20260502105037 10 259 1.6 1.6 0.00 0.05 0.18
20260502104538 10 243 3.2 1.6 0.00 0.05 0.18
20260502104038 10 238 3.2 1.6 0.00 0.05 0.18
20260502103536 10 246 4.8 4.8 0.00 0.05 0.18
20260502103036 10 253 3.2 3.2 0.00 0.05 0.18
20260502102537 10 248 4.8 4.8 0.00 0.05 0.18
20260502102035 10 243 4.8 6.4 0.00 0.05 0.18
20260502101535 10 249 4.8 4.8 0.00 0.05 0.18
20260502101036 10 252 4.8 6.4 0.00 0.05 0.18
20260502100533 10 260 3.2 3.2 0.00 0.05 0.18
20260502100308 9 293 0.0 0.0 0.00 0.05 0.18
20260502091530 10 335 4.8 3.2 0.00 0.05 0.18
20260502091030 10 321 0.0 0.0 0.00 0.05 0.18
20260502090528 10 338 0.0 0.0 0.00 0.05 0.18
20260502071520 10 278 4.8 4.8 0.00 0.05 0.18
20260502071020 10 304 6.4 6.4 0.00 0.05 0.18
20260502070518 10 302 6.4 6.4 0.00 0.05 0.18
20260502070018 10 290 4.8 3.2 0.00 0.05 0.18
20260502065519 10 277 3.2 4.8 0.00 0.05 0.18
20260502065016 10 283 4.8 4.8 0.00 0.05 0.18
20260502064517 10 260 0.0 0.0 0.00 0.05 0.18
20260502064017 10 260 0.0 0.0 0.00 0.05 0.18
20260502063515 10 260 0.0 0.0 0.00 0.05 0.18
20260502063015 10 260 0.0 0.0 0.00 0.05 0.18
20260502062516 10 260 0.0 0.0 0.00 0.05 0.18
20260502062013 9 260 0.0 0.0 0.00 0.05 0.18
20260502061514 9 219 0.0 0.0 0.00 0.05 0.18
20260502061014 9 270 1.6 0.0 0.00 0.05 0.18
20260502060512 9 253 0.0 0.0 0.00 0.05 0.18
20260502060012 9 253 0.0 0.0 0.00 0.05 0.18
20260502055513 9 253 0.0 0.0 0.00 0.05 0.18
20260502055010 8 253 0.0 0.0 0.00 0.05 0.18
20260502054511 8 253 0.0 0.0 0.00 0.05 0.18
20260502054011 8 253 0.0 0.0 0.00 0.05 0.18
20260502053509 8 253 0.0 0.0 0.00 0.05 0.18
20260502053009 8 253 0.0 0.0 0.00 0.05 0.18
20260502052509 8 253 0.0 0.0 0.00 0.05 0.18
20260502052007 9 253 0.0 0.0 0.00 0.05 0.18
20260502051508 9 253 0.0 0.0 0.00 0.05 0.18
20260502051008 8 253 0.0 0.0 0.00 0.05 0.18
20260502050506 8 253 0.0 0.0 0.00 0.05 0.18
20260502050006 9 253 0.0 0.0 0.00 0.05 0.18
20260502045507 9 253 0.0 0.0 0.00 0.05 0.18
20260502045005 9 253 1.6 1.6 0.00 0.05 0.18
20260502044505 9 197 0.0 0.0 0.00 0.05 0.18
20260502044006 9 197 0.0 0.0 0.00 0.05 0.18
20260502043504 9 197 0.0 0.0 0.00 0.05 0.18
20260502043004 10 250 3.2 3.2 0.00 0.05 0.18
20260502042002 10 242 3.2 3.2 0.00 0.05 0.18
20260502041503 10 356 0.0 0.0 0.00 0.05 0.18
20260502041003 10 356 0.0 0.0 0.00 0.05 0.18
20260502040501 10 356 0.0 0.0 0.00 0.05 0.18
20260502040002 10 356 0.0 0.0 0.00 0.05 0.18
20260502035502 10 356 0.0 0.0 0.00 0.05 0.18
20260502035000 10 356 0.0 0.0 0.00 0.05 0.18
20260502034500 10 356 1.6 0.0 0.00 0.05 0.18
20260502034001 10 345 0.0 0.0 0.00 0.05 0.18
20260502033458 11 345 0.0 0.0 0.00 0.05 0.18
20260502032959 11 345 1.6 1.6 0.00 0.05 0.18
20260502032459 11 13 3.2 3.2 0.00 0.05 0.18
20260502031957 11 24 6.4 4.8 0.00 0.05 0.18
20260502031457 11 25 4.8 4.8 0.00 0.05 0.18
20260502030958 12 20 4.8 4.8 0.00 0.05 0.18
20260502030455 12 38 6.4 9.7 0.00 0.05 0.18
20260502025956 12 39 6.4 6.4 0.00 0.05 0.18
20260502025457 12 41 6.4 6.4 0.00 0.05 0.18
20260502024954 12 27 6.4 8.0 0.00 0.05 0.18
20260502024455 12 14 6.4 6.4 0.00 0.05 0.18
20260502023955 12 24 4.8 4.8 0.00 0.05 0.18
20260502023553 12 28 4.8 4.8 0.00 0.05 0.18
20260502023453 12 21 4.8 4.8 0.00 0.05 0.18
20260502022953 12 28 4.8 4.8 0.00 0.05 0.18
20260502022454 12 27 6.4 6.4 0.00 0.05 0.18
20260502021951 12 27 4.8 4.8 0.00 0.05 0.18
20260502021452 12 28 8.0 6.4 0.00 0.05 0.18
20260502020953 12 23 6.4 4.8 0.00 0.05 0.18
20260502020450 12 25 4.8 6.4 0.00 0.05 0.18
20260502020243 12 41 3.2 3.2 0.00 0.05 0.18
20260502015951 12 41 3.2 3.2 0.00 0.05 0.18
20260502015451 12 28 4.8 6.4 0.00 0.05 0.18
20260502014949 12 28 4.8 4.8 0.00 0.05 0.18
20260502014450 12 35 6.4 4.8 0.00 0.05 0.18
20260502013950 12 46 6.4 6.4 0.00 0.05 0.18
20260502013448 12 35 6.4 4.8 0.00 0.05 0.18
20260502013356 13 32 6.4 4.8 0.00 0.05 0.18
20260502012948 13 32 6.4 4.8 0.00 0.05 0.18
20260502012449 13 28 8.0 9.7 0.00 0.05 0.18
20260502011947 13 11 6.4 9.7 0.00 0.05 0.18
20260502011447 12 48 9.7 9.7 0.00 0.05 0.18
20260502010948 13 34 8.0 11.3 0.00 0.05 0.18
20260502010445 13 38 9.7 14.5 0.00 0.05 0.18
20260502005946 13 41 12.9 11.3 0.00 0.05 0.18
20260502005447 13 37 16.1 9.7 0.00 0.05 0.18
20260502004943 13 39 16.1 19.3 0.00 0.05 0.18
20260502004444 13 38 16.1 12.9 0.00 0.05 0.18
20260502003944 13 38 11.3 14.5 0.00 0.05 0.18
20260502003442 13 20 17.7 16.1 0.00 0.05 0.18
20260502002443 13 18 20.9 17.7 0.00 0.05 0.18
20260502001941 13 37 19.3 20.9 0.00 0.05 0.18
20260502001441 14 4 14.5 17.7 0.00 0.05 0.18
20260502000942 14 20 14.5 17.7 0.00 0.05 0.18
20260502000439 13 25 14.5 16.1 0.00 0.05 0.18
20260501235940 14 7 17.7 17.7 0.00 0.05 0.18
20260501235441 13 3 14.5 16.1 0.00 0.05 0.18
20260501234938 13 23 17.7 20.9 0.00 0.05 0.18
20260501234439 13 10 12.9 16.1 0.00 0.05 0.18
20260501233939 13 31 19.3 16.1 0.00 0.05 0.18
20260501233437 13 7 17.7 19.3 0.00 0.05 0.18
20260501232938 13 25 19.3 17.7 0.00 0.05 0.18
20260501232438 13 23 17.7 16.1 0.00 0.05 0.18
20260501231936 14 46 19.3 16.1 0.00 0.05 0.18
20260501231436 14 31 19.3 12.9 0.00 0.05 0.18
20260501230937 13 14 16.1 20.9 0.00 0.05 0.18
20260501230435 13 13 17.7 20.9 0.00 0.05 0.18
20260501225935 14 58 16.1 25.7 0.00 0.05 0.18
20260501225436 14 13 16.1 11.3 0.00 0.05 0.18
20260501224934 13 27 19.3 17.7 0.00 0.05 0.18
20260501224435 13 17 19.3 17.7 0.00 0.05 0.18
20260501223935 13 60 16.1 16.1 0.00 0.05 0.18
20260501223433 13 10 9.7 8.0 0.00 0.05 0.18
20260501222933 13 4 14.5 19.3 0.00 0.05 0.18
20260501222434 13 0 19.3 20.9 0.00 0.05 0.18
20260501221932 13 7 20.9 17.7 0.00 0.05 0.18
20260501221432 12 21 19.3 16.1 0.00 0.05 0.18
20260501220933 13 21 20.9 24.1 0.00 0.05 0.18
20260501220431 12 17 17.7 22.5 0.00 0.05 0.18
20260501215931 13 10 22.5 24.1 0.00 0.05 0.18
20260501215432 13 17 20.9 17.7 0.00 0.05 0.18
20260501214929 13 27 19.3 17.7 0.00 0.05 0.18
20260501214430 13 25 19.3 17.7 0.00 0.05 0.18
20260501213930 13 6 19.3 17.7 0.00 0.05 0.18
20260501213428 12 14 14.5 17.7 0.00 0.05 0.18
20260501212929 13 38 16.1 17.7 0.00 0.05 0.18
20260501212429 13 24 19.3 16.1 0.00 0.05 0.18
20260501211927 13 51 14.5 14.5 0.00 0.05 0.18
20260501211428 12 1 20.9 20.9 0.00 0.05 0.18
20260501210928 13 11 22.5 19.3 0.00 0.05 0.18
20260501205926 13 39 24.1 29.0 0.00 0.05 0.18
20260501205427 13 27 24.1 22.5 0.05 0.05 0.18
20260501204925 13 10 22.5 27.4 0.05 0.05 0.18
20260501204425 13 1 29.0 30.6 0.05 0.05 0.18
20260501203926 13 20 24.1 27.4 0.05 0.05 0.18
20260501203423 13 7 22.5 27.4 0.05 0.05 0.18